Lapse_Rate
5.7 5.4 5.5 5.9 5.7 5.9 5.9 5.8 5.6 5.5 5.5 5.4 5.1 4.9 5.0 4.9 5.2 5.6 5.6 5.2 5.0 5.3 5.5 5.4 5.4 5.6 5.6 5.6 5.6 5.7 5.7 5.7 5.8 5.9 5.9 6.0 6.3 6.5 6.6 6.5 6.5 6.5 6.4 6.3 6.3 6.3 6.0 5.9 5.8
5.9 5.4 5.6 5.9 5.8 5.8 5.8 5.6 5.6 5.4 5.3 5.1 5.2 5.2 5.1 5.0 5.0 5.3 5.6 5.5 5.2 5.3 5.4 5.6 5.5 5.6 5.4 5.5 5.5 5.7 5.8 5.9 5.9 5.9 6.0 6.2 6.4 6.5 6.5 6.5 6.4 6.5 6.5 6.4 6.3 6.3 6.0 5.9 5.9
6.3 6.1 6.2 6.3 6.0 5.9 5.8 5.8 5.7 5.7 5.6 5.4 5.3 5.4 5.2 5.3 5.2 5.4 5.6 5.9 5.5 5.6 5.8 5.8 5.7 5.4 5.4 5.6 5.6 5.7 5.9 6.0 6.0 6.0 6.2 6.3 6.3 6.3 6.2 6.2 6.4 6.5 6.4 6.3 6.2 6.1 6.1 6.0 6.0
6.5 6.5 6.6 6.3 6.3 6.1 5.7 5.6 5.7 5.6 5.5 5.5 5.2 5.3 5.4 5.4 5.0 5.4 5.6 5.7 5.5 5.5 5.9 5.9 5.6 5.4 5.6 5.7 5.7 5.8 6.0 6.0 6.0 6.2 6.2 6.2 6.2 6.2 6.2 6.4 6.4 6.5 6.4 6.1 6.1 6.2 6.2 6.1 6.0
6.7 6.7 6.7 6.8 6.7 6.1 6.0 6.0 5.7 5.5 5.6 5.7 5.7 5.7 5.7 5.6 5.0 5.2 5.4 5.5 5.6 5.6 5.9 5.8 5.5 5.6 5.7 5.9 5.9 6.0 5.9 5.9 6.1 6.0 6.0 6.0 6.1 6.2 6.4 6.5 6.5 6.4 6.3 6.2 6.1 6.2 6.2 6.0 5.9
6.7 6.8 7.1 6.9 6.6 6.4 6.1 5.9 5.7 5.7 5.8 5.9 6.0 6.1 5.8 5.6 5.3 5.2 5.3 5.5 5.6 5.7 5.9 5.8 5.6 5.7 5.8 5.9 6.1 5.9 5.8 5.9 5.9 5.8 5.9 5.9 6.1 6.2 6.3 6.4 6.4 6.3 6.2 6.2 6.1 6.1 6.1 6.1 6.1
6.7 6.9 7.4 7.2 6.8 6.4 6.3 6.1 5.7 5.7 5.9 6.1 5.9 6.1 5.8 6.0 5.8 5.3 5.4 5.5 5.7 5.6 5.8 5.7 5.8 5.7 5.9 6.0 5.9 5.7 5.7 5.8 5.8 5.8 5.9 6.0 6.1 6.1 6.2 6.2 6.1 6.1 6.1 6.1 5.9 6.0 6.1 6.0 5.9
5.8 6.1 7.4 7.4 7.2 6.6 6.6 6.3 5.9 6.2 6.1 5.9 5.9 6.4 6.3 6.2 6.2 5.8 5.6 5.6 5.8 5.6 5.5 5.6 5.7 5.8 5.8 5.7 5.6 5.7 5.7 5.8 5.8 5.7 5.8 5.9 5.9 6.0 6.0 6.0 6.0 6.1 6.1 5.9 5.8 5.8 5.9 5.9 6.0
6.5 6.6 7.1 7.1 6.9 7.2 6.8 6.5 6.3 6.3 6.1 6.3 6.2 6.4 6.4 6.4 6.2 6.2 6.0 5.9 5.8 5.6 5.5 5.7 5.7 5.8 5.7 5.6 5.6 5.6 5.6 5.7 5.7 5.8 5.8 5.8 5.9 5.9 6.0 6.0 6.0 6.0 5.9 5.8 5.8 5.7 5.7 5.8 6.0
7.2 6.9 7.0 7.1 7.3 7.0 6.9 6.9 6.5 6.5 6.5 6.5 6.5 6.5 6.4 6.6 6.4 6.4 6.3 6.1 6.0 5.8 5.8 5.8 5.8 5.8 5.7 5.6 5.7 5.7 5.6 5.7 5.7 5.7 5.7 5.8 5.9 5.8 5.8 5.9 5.7 5.8 5.9 5.9 5.9 5.8 5.7 5.9 6.1
7.4 7.2 7.1 7.2 7.3 7.1 6.9 7.1 7.0 6.6 6.7 6.6 6.5 6.5 6.6 6.6 6.7 6.4 6.4 6.2 6.1 5.9 5.9 6.0 5.9 5.8 5.7 5.7 5.7 5.7 5.6 5.8 5.7 5.7 5.7 5.8 5.8 5.9 5.9 5.7 5.8 5.8 5.8 5.9 5.9 5.7 5.7 5.7 5.8
7.2 7.1 7.1 7.1 7.2 7.0 6.9 7.2 7.3 6.8 6.7 6.5 6.3 6.2 6.6 6.8 6.8 6.5 6.4 6.4 6.2 6.1 6.0 6.1 6.0 5.9 5.8 5.7 5.8 5.7 5.7 5.8 5.8 5.8 5.8 5.8 5.9 5.8 6.0 5.9 5.8 5.7 5.8 6.1 5.9 5.9 5.7 5.5 5.8
7.3 7.0 7.0 6.9 7.0 6.9 7.0 7.0 7.3 7.0 6.8 6.7 6.7 6.8 6.4 6.8 6.6 6.3 6.2 6.1 6.1 6.2 6.2 6.1 6.1 6.0 5.9 5.9 5.9 5.8 5.8 5.8 5.9 5.8 5.8 5.9 6.0 5.6 5.8 5.9 5.8 5.7 5.7 5.8 5.8 5.7 5.7 5.8 5.4
7.5 6.9 6.8 7.1 7.2 7.3 7.1 6.8 6.9 7.0 7.1 6.9 7.2 7.3 6.9 6.4 6.6 6.6 6.4 6.4 6.4 6.2 6.2 6.2 6.2 6.0 6.0 6.0 5.9 5.8 5.8 5.9 6.0 5.9 6.0 5.9 5.8 5.8 5.8 5.6 5.6 5.8 5.6 5.4 5.5 5.5 5.4 5.1 5.1
7.0 7.0 7.0 7.2 7.1 7.2 7.5 7.2 7.2 7.1 7.1 7.2 7.1 7.4 7.3 6.4 6.5 6.5 6.4 6.5 6.5 6.3 6.2 6.3 6.2 6.2 6.1 6.1 5.9 5.8 5.9 5.9 5.9 5.9 6.1 6.1 6.0 5.7 5.8 5.7 5.8 5.9 5.9 5.8 5.8 5.6 5.7 5.3 5.1
6.2 6.5 6.6 7.4 7.5 7.5 7.5 8.0 7.9 7.4 7.6 7.4 7.0 7.0 7.2 6.8 6.3 6.2 6.1 6.0 6.1 6.2 6.4 6.3 6.4 6.3 6.2 6.0 5.9 5.9 5.9 5.9 5.8 5.9 6.0 6.1 5.9 5.8 5.7 5.8 5.9 5.9 5.8 6.0 6.1 6.0 5.7 5.8 5.9
5.6 6.5 7.1 7.2 7.7 7.7 7.7 7.8 8.1 8.1 7.5 7.1 7.0 6.9 7.1 7.1 6.7 6.5 6.3 5.9 6.0 6.1 6.3 6.3 6.5 6.3 6.2 6.0 5.8 5.9 6.0 5.9 5.7 6.0 6.1 6.1 6.0 5.7 5.6 5.6 5.7 5.7 5.8 6.0 6.0 6.0 5.9 6.0 6.0
5.2 6.1 6.9 7.1 7.4 7.5 7.8 8.2 8.3 7.8 7.7 7.2 7.2 6.9 6.9 7.2 6.9 6.5 6.2 6.1 5.8 6.0 6.1 6.2 6.2 6.1 6.1 6.1 5.9 5.9 6.1 6.1 6.1 6.0 6.1 6.2 5.9 5.9 5.8 5.7 5.7 5.7 5.9 6.0 6.2 6.1 6.0 6.0 5.8
5.8 6.5 7.2 7.5 7.4 7.6 7.9 8.3 8.1 7.8 7.4 7.2 7.1 7.1 6.9 7.1 6.6 6.1 5.9 6.0 6.1 6.1 6.4 6.5 6.5 6.3 6.3 6.3 6.3 6.4 6.5 6.3 6.4 6.3 6.1 6.0 5.8 5.9 5.8 6.0 5.8 6.0 5.9 5.9 5.7 5.9 5.9 6.0 5.8
6.0 6.1 6.7 6.9 7.3 7.4 7.7 8.2 8.1 8.0 7.8 7.3 7.7 7.3 7.2 6.9 6.9 6.6 6.3 6.3 6.6 6.7 6.9 6.8 6.8 6.6 6.5 6.5 6.3 6.2 6.2 6.0 5.9 5.9 5.9 5.9 6.0 6.0 5.9 5.9 5.9 6.1 6.0 5.9 5.8 5.7 5.8 5.9 5.8
6.0 5.8 6.7 7.1 7.2 7.2 7.5 7.7 8.1 8.4 8.0 7.3 6.7 6.8 6.9 6.8 6.7 6.7 6.7 6.8 6.9 7.0 7.1 7.1 7.0 6.9 6.8 6.6 6.5 6.5 6.3 6.4 6.3 6.3 6.2 6.1 6.0 6.0 6.0 6.1 6.2 6.2 6.0 6.0 5.8 5.9 5.8 5.8 5.8
5.6 6.0 6.4 6.6 6.7 7.1 7.2 7.6 7.7 8.2 8.3 8.1 7.4 6.8 6.9 6.7 6.6 6.6 6.7 6.7 6.8 7.1 7.2 7.1 6.9 6.9 6.9 6.8 6.7 6.7 6.5 6.5 6.3 6.2 6.2 6.1 6.0 6.1 6.1 6.3 6.2 6.3 6.0 5.9 5.8 6.1 5.8 5.6 5.7
5.5 6.2 6.8 7.0 7.0 7.2 7.1 6.8 7.5 7.5 7.8 8.0 8.0 7.6 7.0 6.9 6.8 6.7 6.8 6.9 7.0 6.8 6.9 6.8 6.6 6.6 6.7 6.9 6.8 6.7 6.6 6.5 6.3 6.3 6.4 6.5 6.5 6.4 6.3 6.5 6.3 6.3 6.1 5.9 5.9 6.0 6.0 5.7 5.7
5.7 6.0 6.3 6.6 6.9 6.8 6.8 6.6 7.2 6.9 7.8 8.4 8.4 8.0 7.6 7.0 7.0 6.8 6.7 6.5 6.6 6.5 6.4 6.4 6.5 6.5 6.5 6.7 6.8 6.8 6.8 6.6 6.4 6.3 6.4 6.6 6.8 6.6 6.6 6.6 6.3 6.2 6.2 6.0 6.0 6.0 6.0 5.8 5.7
4.8 5.6 6.3 6.5 6.4 5.8 6.9 6.4 6.0 7.1 7.5 8.2 8.6 8.5 8.1 7.6 7.4 7.2 6.8 6.6 6.5 6.5 6.8 6.7 6.6 6.6 6.6 6.6 6.8 6.9 6.9 6.6 6.6 6.3 6.3 6.5 6.7 6.8 6.8 6.7 6.4 6.4 6.3 6.2 6.2 6.0 6.0 5.9 6.0
4.8 5.4 6.0 5.9 6.2 6.8 6.4 5.9 6.0 7.2 7.7 8.3 8.3 8.3 8.4 7.9 7.6 7.4 7.3 7.1 6.9 6.7 6.6 6.7 6.7 6.6 6.6 6.6 6.8 6.9 6.8 6.7 6.7 6.4 6.5 6.7 6.8 6.8 6.7 6.7 6.6 6.5 6.5 6.5 6.5 6.3 6.2 6.1 6.1
5.0 5.1 6.1 6.4 5.7 6.0 6.3 6.0 6.4 7.0 7.7 8.3 8.5 8.3 8.3 8.0 7.9 8.1 7.8 7.3 7.2 7.1 7.0 6.8 6.7 6.6 6.7 6.7 6.7 6.9 6.8 6.7 6.9 6.7 6.6 6.6 6.7 7.0 6.9 6.8 6.7 6.7 6.7 6.7 6.6 6.5 6.4 6.3 6.3
5.3 5.8 5.4 5.7 5.9 5.9 6.1 5.5 6.3 7.0 7.4 8.2 8.4 8.4 8.6 8.6 8.6 8.5 8.4 8.2 7.8 7.6 7.5 7.3 7.0 6.8 6.8 6.7 6.8 7.0 7.0 6.9 6.7 6.6 6.8 6.8 6.8 6.9 7.0 7.0 6.8 6.7 6.7 6.8 6.8 6.7 6.6 6.5 6.6
4.8 4.8 5.3 5.6 5.7 6.5 6.3 6.4 6.4 6.8 7.5 8.2 8.5 8.8 9.1 8.4 8.8 8.9 8.8 8.7 8.5 8.3 7.8 7.8 7.4 7.2 7.0 6.9 6.7 6.7 6.9 7.0 6.7 6.5 6.8 6.9 6.9 7.0 7.1 7.1 7.0 6.9 6.8 6.9 7.0 7.0 6.8 6.8 6.8
5.7 5.6 5.7 6.1 5.3 5.3 6.2 6.1 6.7 6.9 7.1 7.6 8.3 8.8 8.8 8.7 9.0 8.9 8.8 8.7 8.6 8.5 8.2 8.1 8.1 7.7 7.5 7.5 7.1 6.8 6.6 6.7 6.8 6.9 7.1 7.1 7.3 7.1 7.2 7.3 7.2 7.1 7.0 7.0 7.1 7.1 7.2 7.0 6.9
Wind_Speed
13 13 6 3 2 2 1 4 1 7 4 2 6 2 5 6 3 4 11 13 12 10 12 14 18 19 20 20 20 19 19 18 17 16 15 14 12 11 11 10 10 10 10 10 11 9 8 8 7
13 8 2 1 2 0 3 2 6 2 6 12 10 7 5 4 5 11 11 17 18 17 15 15 17 18 19 19 18 18 18 17 16 15 14 12 11 10 11 10 9 8 9 9 9 9 7 6 6
12 3 1 2 1 3 3 3 11 11 11 5 5 7 3 4 12 11 15 19 19 16 16 16 17 16 17 17 17 16 16 15 14 13 12 11 10 10 9 8 7 6 8 8 8 6 5 4 4
6 2 2 2 4 3 3 7 13 12 7 4 10 9 6 3 14 9 19 19 17 16 17 17 17 16 16 16 15 15 14 13 12 11 10 10 9 8 8 6 5 9 10 9 6 4 3 3 2
1 1 2 2 3 2 4 10 11 6 5 8 5 7 7 5 12 21 18 17 18 15 17 18 17 16 15 15 13 13 12 11 10 10 9 8 7 7 6 6 8 10 9 7 6 5 4 3 4
2 0 3 1 2 2 2 10 8 5 8 9 13 12 6 11 20 19 18 17 17 16 18 18 16 15 14 13 12 11 10 9 8 8 7 6 6 5 5 5 6 7 6 5 4 4 3 3 4
3 2 1 2 4 2 4 10 6 8 10 7 12 8 5 14 21 17 17 16 15 18 17 17 17 15 13 12 11 9 8 7 7 6 5 4 4 2 2 3 4 4 3 2 2 2 2 2 3
2 2 3 2 3 0 8 8 8 8 5 13 12 7 9 15 21 18 17 15 15 13 15 16 16 15 13 12 10 9 8 6 5 4 4 3 1 0 1 2 2 2 2 2 2 2 2 4 5
0 2 2 3 4 2 12 6 5 5 14 4 5 8 16 23 20 18 17 15 13 12 13 16 15 14 13 11 10 9 7 6 4 4 3 3 1 1 1 3 3 3 3 4 4 2 3 4 5
3 2 5 4 4 4 11 11 12 6 14 6 10 14 23 23 21 20 19 17 17 16 15 13 15 14 14 11 10 9 7 6 5 4 3 3 2 3 4 4 5 6 5 6 4 3 3 2 5
6 4 2 4 7 5 10 10 10 11 12 10 18 23 25 23 21 20 18 18 19 17 13 14 13 15 14 11 11 9 8 7 6 5 4 4 4 3 4 4 2 2 2 2 3 1 2 2 2
5 11 8 3 2 3 12 9 9 11 3 11 18 26 26 24 22 22 20 19 18 17 16 15 14 13 14 11 11 10 9 8 6 6 5 5 4 3 4 3 1 2 1 1 2 2 1 1 1
11 5 4 11 11 8 10 13 10 12 5 15 22 25 24 23 23 20 19 18 18 18 17 15 13 12 13 12 11 10 9 9 8 7 7 6 5 3 4 3 3 3 3 2 2 2 1 1 1
6 12 10 8 11 6 12 9 7 9 15 18 24 26 23 23 23 20 19 19 19 18 17 15 15 14 15 11 12 10 10 9 9 9 8 8 7 5 4 4 3 4 4 3 2 3 1 1 1
10 9 7 11 10 6 9 8 13 12 17 21 21 23 22 21 20 21 21 19 19 16 16 16 15 16 12 13 13 11 11 10 9 10 10 9 8 7 6 4 4 4 4 3 3 1 2 2 3
4 5 7 6 12 8 15 12 16 19 20 21 21 20 21 22 22 20 18 19 18 17 17 16 13 15 15 12 12 12 11 10 10 10 10 10 10 10 7 5 4 4 4 5 3 2 2 3 1
2 7 9 4 14 7 15 13 14 23 20 21 21 21 21 20 22 21 21 19 19 18 17 17 16 16 16 14 13 12 11 11 11 10 10 11 11 11 10 7 6 4 5 4 2 1 1 1 2
8 8 5 9 6 11 16 17 5 22 23 23 23 21 21 22 25 22 22 20 19 18 16 16 14 16 15 10 8 8 7 10 11 11 12 12 13 13 11 7 6 4 4 2 1 2 2 2 2
9 7 13 9 6 6 13 16 13 19 21 21 22 22 22 24 21 20 20 19 18 17 17 18 17 16 13 11 11 10 10 8 8 10 12 9 11 12 11 7 7 6 5 3 3 2 2 1 1
17 17 17 9 6 4 7 11 10 18 24 24 24 23 24 20 21 21 21 21 21 21 20 19 18 16 15 11 10 8 9 9 9 10 11 10 11 10 11 7 6 7 5 4 5 4 3 1 1
23 23 18 8 4 5 8 12 6 13 15 18 21 21 18 23 24 22 23 23 22 21 21 19 19 18 16 14 9 8 6 6 7 9 8 9 11 11 12 11 9 6 5 4 5 5 5 3 2
23 20 21 17 9 10 4 13 8 13 18 21 21 22 24 23 23 21 23 23 24 22 20 19 18 17 16 16 13 14 12 12 11 10 10 9 13 12 12 11 10 8 5 5 5 4 4 3 3
17 14 17 19 14 12 15 9 16 8 15 22 23 25 25 26 25 25 26 25 24 22 20 19 18 17 16 16 16 13 14 12 10 10 11 11 9 14 13 12 11 8 6 6 6 6 5 4 3
11 10 8 3 9 16 22 14 16 12 19 18 22 24 24 25 26 25 26 24 22 20 20 19 18 18 17 17 19 17 17 14 11 11 10 10 10 10 12 12 11 11 7 7 7 7 7 5 4
20 17 8 10 11 14 14 13 19 9 17 19 21 25 26 27 25 25 24 23 21 22 22 20 20 20 19 19 19 20 19 17 16 14 11 11 9 9 11 11 9 8 11 9 8 8 7 7 6
28 23 9 15 16 14 7 15 13 17 20 17 19 21 22 23 23 25 24 22 22 23 23 22 21 21 21 21 21 19 19 13 13 14 13 12 11 10 11 12 11 12 13 11 10 7 7 8 7
19 25 23 12 1 5 12 15 12 11 17 22 19 18 19 23 25 27 27 25 23 21 23 24 22 22 21 22 19 19 17 18 15 16 14 12 11 11 12 13 13 13 12 12 11 8 10 9 8
14 19 10 13 14 15 8 10 14 18 20 19 20 20 20 21 22 25 24 24 23 23 22 23 23 23 23 22 19 17 19 19 18 14 15 15 13 13 12 13 13 12 13 13 12 10 10 10 9
11 20 13 12 12 10 9 11 7 16 19 22 23 22 22 21 22 23 22 22 24 22 21 23 23 23 21 21 20 20 19 19 17 16 16 15 15 14 14 14 13 13 13 14 13 12 12 13 11
24 19 26 12 12 15 8 8 2 12 11 15 19 19 19 18 20 18 21 21 20 22 21 23 22 22 22 21 20 21 19 19 19 19 19 17 17 16 16 15 15 15 14 13 15 15 13 14 14
Wind_Direction
162 159 163 189 201 213 297 85 70 133 114 48 120 152 128 34 51 112 131 132 137 140 142 132 126 118 116 113 114 115 119 120 118 120 118 116 110 105 98 91 85 79 80 80 84 90 95 98 107
162 151 201 192 247 70 79 102 124 144 118 113 90 100 74 79 79 120 125 146 150 141 146 138 124 123 120 117 118 119 121 120 120 119 119 114 108 100 92 89 83 81 78 76 79 81 85 103 120
164 168 136 194 341 8 21 81 116 120 147 137 112 73 78 95 121 129 140 143 147 144 146 142 129 126 125 122 120 121 123 123 125 121 117 115 108 96 88 83 84 93 91 79 75 79 88 82 90
171 181 188 258 9 75 30 146 135 132 121 91 122 95 85 83 137 134 142 144 143 147 149 143 137 133 131 124 127 127 127 126 122 122 122 119 110 100 88 80 64 64 73 71 78 90 93 85 87
184 236 253 247 14 31 5 157 159 140 112 138 143 119 108 88 119 137 141 148 146 147 149 149 143 143 136 136 134 134 129 126 129 127 122 114 106 94 81 52 48 64 71 80 90 92 84 72 71
207 317 239 44 26 345 62 149 142 119 123 120 118 120 100 127 139 144 147 150 148 147 154 154 148 149 143 142 143 139 135 139 135 128 119 110 99 87 75 58 44 56 68 83 92 98 96 85 65
258 227 51 4 343 2 135 145 158 136 137 128 134 114 109 148 146 147 151 151 152 150 153 161 161 158 155 155 156 153 151 147 138 124 119 109 96 82 61 43 40 51 59 49 53 59 69 74 70
278 287 354 344 346 313 142 135 140 149 103 127 143 158 157 162 155 148 152 155 157 157 162 163 167 168 168 166 169 168 165 160 144 134 139 128 133 222 58 4 39 28 43 14 25 36 44 69 79
187 294 264 227 202 193 156 132 124 117 143 173 162 148 142 152 154 152 156 162 164 169 173 172 173 176 175 175 177 181 177 175 172 176 177 181 164 298 328 4 340 46 46 55 36 22 36 55 85
207 233 223 185 225 220 173 160 151 152 159 136 99 120 140 153 160 162 165 171 176 175 180 180 183 181 181 183 188 192 189 188 194 198 212 235 262 285 298 307 337 19 22 57 35 42 5 25 76
180 230 241 218 219 196 176 175 160 147 185 183 160 150 154 163 168 169 175 179 180 181 184 184 184 185 187 188 194 198 197 199 204 219 237 252 270 278 297 303 325 326 20 44 86 98 54 13 33
211 241 248 280 139 199 189 170 180 179 148 184 166 160 160 170 175 176 180 182 184 189 191 185 185 187 193 194 201 204 203 204 215 217 235 250 257 285 298 307 315 296 6 231 80 153 84 55 287
236 238 215 255 278 250 185 190 179 195 98 149 153 161 168 174 178 183 183 184 187 193 193 191 189 194 195 202 207 211 212 210 216 225 232 243 258 282 305 322 298 310 323 317 44 151 154 143 324
206 225 264 266 266 193 188 192 198 170 134 145 160 167 174 183 182 181 187 192 194 196 196 191 193 197 200 207 211 212 215 215 225 232 233 233 248 264 302 294 287 297 312 330 317 34 29 346 30
251 259 261 235 213 203 187 199 217 156 149 156 176 171 178 187 189 194 190 196 197 199 197 196 194 197 204 210 213 217 219 216 226 236 239 234 233 236 247 277 277 285 318 276 238 165 166 53 41
227 212 226 158 192 186 178 248 211 167 171 169 175 182 183 190 196 201 200 200 200 202 200 199 198 198 205 211 212 217 223 226 231 237 240 232 234 236 244 252 259 266 276 256 288 353 11 73 106
239 227 216 211 192 156 199 255 205 181 184 172 181 188 189 192 201 202 204 203 203 202 200 203 201 203 206 211 215 219 224 230 234 240 243 237 235 229 235 241 248 250 261 256 7 330 359 112 97
215 222 230 231 171 190 207 241 197 189 190 184 186 189 195 194 203 201 205 205 205 203 201 203 203 206 204 207 212 220 225 232 235 238 249 240 235 227 220 221 236 246 248 166 162 215 100 30 44
219 236 239 237 238 223 226 245 218 195 201 195 190 193 198 203 198 202 205 205 207 205 203 202 201 202 198 202 205 211 218 220 231 236 241 234 226 217 212 201 213 214 241 237 170 178 181 160 67
225 234 242 257 260 279 251 259 227 197 207 199 194 194 203 199 197 200 203 205 206 206 207 204 203 198 200 203 204 206 209 221 224 226 234 232 227 211 214 210 202 211 227 203 179 190 163 140 144
220 223 219 232 337 240 255 255 209 213 213 207 210 208 207 199 198 201 202 204 207 207 206 206 202 198 197 201 200 204 210 221 217 226 231 227 228 223 221 208 214 207 222 225 196 194 196 176 152
222 219 237 244 258 250 229 265 213 208 206 208 209 207 208 207 204 204 205 208 207 210 206 206 207 202 199 192 198 201 209 213 219 219 224 225 225 225 222 213 208 212 219 224 217 193 207 196 176
227 207 221 239 247 263 236 250 248 207 213 216 212 212 211 209 203 204 206 206 209 209 208 204 202 205 202 196 203 203 215 218 222 223 221 224 222 226 221 211 210 215 218 217 215 183 203 201 218
189 173 193 210 241 239 239 233 249 210 216 216 217 220 215 212 209 210 211 210 208 207 207 206 201 204 202 201 202 205 212 215 217 221 223 228 228 221 218 210 212 213 216 212 209 194 206 212 220
196 181 186 218 219 238 220 229 240 232 218 218 210 216 216 211 211 212 211 209 206 203 203 200 198 202 200 202 205 209 213 213 213 215 222 223 221 217 210 204 211 212 212 209 202 191 202 207 213
201 199 205 214 233 244 196 237 237 223 234 231 233 224 219 213 211 214 211 208 208 205 201 199 198 204 201 202 207 209 211 213 217 217 221 220 221 218 210 206 210 211 207 206 199 200 207 206 212
196 211 216 256 150 262 223 247 264 239 224 217 221 225 217 212 212 214 214 211 208 204 203 201 199 201 200 204 205 208 208 211 212 216 211 218 220 221 213 209 212 215 209 203 193 206 203 201 207
186 180 185 215 232 238 219 247 234 198 213 212 215 213 221 219 215 218 216 214 212 206 204 201 200 199 200 200 204 207 207 209 212 209 211 213 214 218 211 210 209 207 209 207 198 204 204 199 205
181 189 206 202 221 227 247 246 208 219 213 213 216 213 215 217 218 217 215 213 212 211 203 202 199 200 199 200 202 207 207 206 208 208 212 212 208 209 209 210 209 208 206 206 205 207 203 202 205
203 196 197 205 187 225 259 252 263 228 221 228 225 223 228 226 225 223 220 213 209 208 205 202 201 200 201 201 200 204 208 207 206 210 209 206 209 207 210 209 211 213 210 206 209 210 210 208 210